Regional Weather Roundup
Issued by NWS Upton, NY

Current Version | Previous Version | Text Only | Print | Product List | Glossary On
Versions: 1 2 3 4 5 6 7 8 9 10 11 12 13 14 15 16 17 18 19 20 21 22 23 24 25 26 27
000
ASUS41 KOKX 211509
RWROKX

REGIONAL WEATHER ROUNDUP
NATIONAL WEATHER SERVICE NEW YORK NY
1100 AM EDT FRI JUL 21 2017

NOTE: "FAIR" INDICATES FEW OR NO CLOUDS BELOW 12,000 FEET WITH NO
SIGNIFICANT WEATHER AND/OR OBSTRUCTIONS TO VISIBILITY.

NYZ071-072-176-178-NJZ106-104-211600-
NEW YORK CITY METRO AREA

CITY           SKY/WX    TMP DP  RH WIND       PRES   REMARKS
Central Park   MOSUNNY   85  67  54 VRB3      29.94F
Bronx Bot Gard   N/A     82  64  54 W3        29.93F
LaGuardia APRT MOSUNNY   85  68  56 NW12      29.91F
Kennedy INTL   MOSUNNY   88  68  51 N12       29.92S HX  91
Breezy Point     N/A     82 N/A N/A NW8         N/A
Newark/Liberty MOSUNNY   87  68  52 NW8       29.91F HX  90
Teterboro      SUNNY     85  68  56 NW12      29.90F
$$

NYZ177-179-078>081-211600-
LONG ISLAND NEW YORK

CITY           SKY/WX    TMP DP  RH WIND       PRES   REMARKS
Jones Beach      N/A     82 N/A N/A NW10        N/A
Matinecock PT    N/A     79 N/A N/A SW2         N/A
Farmingdale    SUNNY     85  67  54 W9        29.91F
MacArthur/ISP  MOSUNNY   85  68  56 N7        29.90F
Shirley        SUNNY     86  69  56 NW8       29.91F HX  90
Mt Sinai Harb    N/A     82 N/A N/A NW5         N/A
Westhampton    MOSUNNY   84  66  54 N7        29.92F
East Hampton   FAIR      81  67  60 NW6       29.89F
Montauk          N/A     81  68  64 W8        29.91S
$$

NYZ052-065-067-211600-
HUDSON VALLEY

CITY           SKY/WX    TMP DP  RH WIND       PRES   REMARKS
White Plains   NOT AVBL
Larchmont Harb   N/A     81 N/A N/A W10         N/A
Croton O-T Hud   N/A     82 N/A N/A W5          N/A
Newburgh       MOSUNNY   79  72  78 W7        29.95S
Montgomery     SUNNY     82  69  64 W9        29.92F
Poughkeepsie   SUNNY     82  67  60 W7        29.90F
Albany         MOSUNNY   80  66  62 W9        29.91F
$$

NJZ001-105-106-008-010-013-015-019>022-104-211600-
NEW JERSEY

CITY           SKY/WX    TMP DP  RH WIND       PRES   REMARKS
Newark/Liberty MOSUNNY   87  68  52 NW8       29.91F HX  90
Teterboro      SUNNY     85  68  56 NW12      29.90F
Caldwell       SUNNY     84  66  54 NW12      29.93F
Somerville     MOSUNNY   85  69  58 N7        29.92S
Linden         FAIR      84  69  60 W6        29.92F
Perth Amboy      N/A     81 N/A N/A NW9         N/A
Sussex         MOSUNNY   82  69  64 N6        29.94F
Andover          N/A     82  68  62 VRB7      29.96S
Trenton        SUNNY     85  70  60 NW8       29.94F
Millville      SUNNY     87  74  64 N7        29.94S HX  95
Atlantic City  PTSUNNY   88  73  61 VRB5      29.94S HX  95
Wrightstown    MOSUNNY   87  70  56 N3        29.91F HX  92
Toms River     PTSUNNY   88  68  51 NW12      29.94F HX  91
Belmar         PTSUNNY   85  72  65 NW9       29.94F HX  91
$$

PAZ047>061-062-071-211600-
EASTERN PENNSYLVANIA

CITY           SKY/WX    TMP DP  RH WIND       PRES   REMARKS
Philadelphia   MOSUNNY   88  69  53 NW7       29.94F HX  92
Allentown      SUNNY     85  69  58 NW8       29.96S
Scranton       SUNNY     80  68  66 NW8       29.98S
$$

CTZ002-004>006-009-010-012-RIZ004-006-007-MAZ004-011-015-211600-
SOUTHERN NEW ENGLAND
 IN CT

CITY           SKY/WX    TMP DP  RH WIND       PRES   REMARKS
Bradley INTL   PTSUNNY   82  68  62 NE3       29.89F
Hartford       PTSUNNY   83  68  60 N9        29.88F
Danbury        SUNNY     82  68  62 NW7       29.93F
Wtrbury/Oxford NOT AVBL
Bridgeport     SUNNY     82  70  66 S10       29.90F
Meriden        CLOUDY    83  68  60 N8        29.90F
New Haven      MOSUNNY   81  70  69 S7        29.90F
Chester        FAIR      82  66  57 VRB5G14   29.91S
Groton         SUNNY     84  66  54 NW9       29.88S
Wilimantic     SUNNY     83  66  56 NW12      29.90F

 IN RI

CITY           SKY/WX    TMP DP  RH WIND       PRES   REMARKS
Providence     MOSUNNY   84  65  52 VRB6      29.88S
Block Island   SUNNY     78  67  68 W10       29.90S
Westerly       SUNNY     86  66  51 VRB6      29.89S
 IN MA

CITY           SKY/WX    TMP DP  RH WIND       PRES   REMARKS
Boston         MOSUNNY   83  58  42 W13       29.85F
Worcester      SUNNY     78  59  51 NW10      29.91F
Westfield      PTSUNNY   82  66  58 NW12      29.89S
Provincetown   SUNNY     77  64  64 NW9       29.87S
Nantucket      MOSUNNY   84  61  45 NW8       29.87R
$$

ANZ330-335-338-340-345-350-353-355-211600-
COASTAL MARINE OBSERVATIONS


STATION/POSITION TIME  SKY/WX   TEMP    WIND        PRES    VSBY  WAVE
                                AIR SEA DIR/SP/G                  HT/PER
                 (UTC)          (F)     (DEG/KT/KT) (MB)    (MI)  (FT/S)
NY HARB ENTRANCE 1350            76 74  260/  6/  6 1013.1          2/ 5
20 S FIRE ISLAND 1450            76 76  290/  8/ 10 1012.7          3/ 5
GREAT SOUTH BAY  1430            81 82  320/ 10/ 12   N/A
23 SSW MONTAUK P 1350            75 75              1012.8          3/ 6
15 E BARNEGAT LI 1430               78                N/A           2/11
HUDSON CANYON    1350            79 79  300/  8/ 10 1012.6          4/ 5
KINGS POINT      1442            79 72  350/  8/  9 1013.0
EXECUTION ROCKS  1445            83     350/  6/ 10   N/A
CENTRAL LI SOUND NOT AVBL
EASTERN LI SOUND NOT AVBL
ROBBINS REEF     1436                   330/  7/ 12 1013.9
$$


>>>>>>>>>>>>>>>>>>>>>>>>>>>> KEY <<<<<<<<<<<<<<<<<<<<<<<<<<<
>                                                          <
>     SKY/WX - Sky Condition/Present Weather               <
>     TMP    - Temperature in Fahrenheit                   <
>     DP     - Dew Point in Fahrenheit                     <
>     RH     - Relative Humidity in Percent                <
>     WIND   - Direction (from) and Speed in MPH           <
>     PRES   - Mean Sea Level Pressure (inches of Hg)      <
>     WCI    - Wind Chill Index                            <
>     VSB    - VISIBILITY IN MILES                         <
>     HX     - HEAT INDEX                                  <
>     TC     - TEMPERATURE IN CELSIUS                      <
>     VRB    - VARIABLE WIND DIRECTION                     <
>                                                          <
>>>>>>>>>>>>>>>>>>>>>>>>>>>> KEY <<<<<<<<<<<<<<<<<<<<<<<<<<<




USA.gov is the U.S. government's official web portal to all federal, state and local government web resources and services.